sat.trackr.live / text

‹ back to catalog

STARLINK-11092 [DTC]

NORAD 59710 · 2024-088C

PAYLOAD ACTIVE UNKNOWN

§ Identity

Operator
Country
US
Launch date
2024-05-10
Launch site
AFWTR
Launch vehicle
Mass (kg)
RCS (m²)

Purposes: comms

External: N2YO · Heavens-Above · Gunter

§ Orbital elements

Epoch: 2026-09-21T21:15:06.564960Z

Period
91.74 min
Inclination
53.1597°
Eccentricity
0.0000871
Mean motion
15.69710636 rev/d
Perigee alt
359.1 km
Apogee alt
360.3 km
Semi-major
6,737.9 km
B*
2.3090e-8
RAAN
79.3475°
Arg perigee
76.5373°
Mean anomaly
283.5742°
Rev number
13,708

§ Raw data

STARLINK-11092 [DTC]1 59710U 24088C   26264.88549265 -.00000585  00000+0  23090-7 0  99902 59710  53.1597  79.3475 0000871  76.5373 283.5742 15.69710636137080

JSON: /api/v1/satellites/59710 · /tle

For live sub-satellite position, see the globe view (requires WebGL).

§ Visibility from observer

Set your observer location to see the next 7 days of passes ≥ 10°. The values pass through the URL so the page stays shareable.

No JS? Fill the form by hand. The geolocation button needs JavaScript.